User: anonymous   Login
Location: Caltech
(34.1382°N, 118.1253°W)
Time: 09:06:20
(UTC-07:00)
Language:

Oscar 11 - Orbit

View from above orbital plane
View from above orbital plane
View from above satellite
View from above satellite

Ground track
Ground track

The orbit data is extracted from the following two-line orbital elements,

1 14781U 84021B   15088.17884107  .00001309  00000-0  17045-3 0  9997
2 14781 097.8111 147.1989 0007980 341.4819 018.6103 14.82252320670172
Epoch (UTC): 29 March 2015 04:17:31
Eccentricity: 0.0007980
inclination: 97.8111°
perigee height: 616 km
apogee height: 628 km
right ascension of ascending node: 147.1989°
argument of perigee: 341.4819°
revolutions per day: 14.82252320
mean anomaly at epoch: 18.6103°
orbit number at epoch: 67017

The dashed part of the orbit path shows where the satellite is in the earth's shadow,  

DLR